Regional Weather Roundup
Issued by NWS

Home | Current Version | Previous Version | Graphics & Text | Print | Product List | Glossary On
Versions: 1 2 3 4 5 6 7 8 9 10 11 12 13 14 15 16 17 18 19 20 21 22 23 24 25 26 27 28 29 30 31 32 33 34 35 36 37 38 39 40 41 42 43 44 45 46 47 48 49 50
000
ASUS43 KLOT 270103
RWRIL

ILLINOIS REGIONAL WEATHER ROUNDUP
NATIONAL WEATHER SERVICE CHICAGO/ROMEOVILLE IL
800 PM CDT MON SEP 26 2016

NOTE: "FAIR" INDICATES FEW OR NO CLOUDS BELOW 12,000 FEET WITH NO
SIGNIFICANT WEATHER AND/OR OBSTRUCTIONS TO VISIBILITY.

* THESE STATIONS ARE NOT UNDER NWS QUALITY CONTROL. THEY ALSO MAY NOT
  REPORT WEATHER SUCH AS PRECIPITATION OR FOG.

ILZ001-002-007-009-015-016-024-270200-
NORTHWEST ILLINOIS

CITY           SKY/WX    TMP DP  RH WIND       PRES   REMARKS
MOLINE         CLEAR     61  40  45 SW6       29.98S
STERLING*      CLEAR     60  37  42 SW6       29.97S
$$

ILZ003-004-008-010-011-017-018-270200-
NORTH CENTRAL ILLINOIS

CITY           SKY/WX    TMP DP  RH WIND       PRES   REMARKS
ROCKFORD       CLEAR     60  37  42 SW8       29.96R
FREEPORT*      PTCLDY    56  37  47 SW9       29.96S
ROCHELLE*      PTCLDY    55  38  51 SW7       29.96S
$$

ILZ005-006-012>014-019>023-270200-
NORTHEAST ILLINOIS

CITY           SKY/WX    TMP DP  RH WIND       PRES   REMARKS
CHICAGO-OHARE  CLEAR     62  34  35 W10       29.93S
CHICAGO-MIDWAY CLEAR     66  32  28 W13       29.94S
AURORA         CLEAR     58  37  45 SW7       29.96S
LANSING*       CLEAR     61  38  43 W7        29.96R
WAUKEGAN       CLEAR     60  36  40 SW6       29.90S
DUPAGE AIRPORT CLEAR     59  35  40 SW8       29.94S
KANKAKEE*      CLEAR     59  37  43 W5        29.99S
WHEELING       CLEAR     63  33  32 W8        29.94R
NORTHERLY ISL    N/A     66  33  29 W6          N/A
$$

LMZ740>746-270200-
SOUTHERN LAKE MICHIGAN

STATION/POSITION SKY/WX   TEMP    WIND        PRES    VSBY  WAVE
                          AIR SEA DIR/SP/G                  HT/PER
                          (F)     (DEG/KT/KT) (MB)    (MI)  (FT/S)
SOUTHERN BUOY              67 71  250/ 23/ 27 1010.9          5/ 5
WILMETTE HARBOR            65 63  290/ 12/ 16   N/A           2/ 3
HARRISON CRIB              68     260/ 21/ 25   N/A
BURNHAM HARBOR             66     280/ 11/ 14   N/A
CALUMET HARBOR             67     250/  5/ 14 1013.3R
BURNS HARBOR               67     260/ 22     1014.2R
MICHIGAN CITY              67     240/ 21/ 25   N/A
MICHIGAN CITY 6N           68 67  290/ 21/ 29   N/A           6/ 5
ST. JOSEPH                 67 64  280/ 21/ 29 1013.1R         7/ 6
$$

ILZ025>027-034>036-040-047-049-050-058-095>099-270200-
WEST-CENTRAL ILLINOIS

CITY           SKY/WX    TMP DP  RH WIND       PRES   REMARKS
QUINCY         CLEAR     58  44  60 SW6       30.06S
GALESBURG*       N/A    N/A N/A N/A MISG        N/A
MACOMB*        CLEAR     57  40  53 W7        30.05S
$$

ILZ028>032-037-038-041>044-048-051>054-059>061-270200-
CENTRAL ILLINOIS

CITY           SKY/WX    TMP DP  RH WIND       PRES   REMARKS
BLOOMINGTON    CLEAR     62  35  36 W9        30.03S
DECATUR        CLEAR     65  36  34 W6        30.04S
PEORIA         CLEAR     59  40  49 SW7       30.02R
LINCOLN*       CLEAR     65  37  34 CALM      30.03S
SPRINGFIELD    CLEAR     59  40  49 SW7       30.05S
TAYLORVILLE    NOT AVBL
$$

ILZ033-039-045-046-055>057-062-063-270200-
EAST-CENTRAL ILLINOIS

CITY           SKY/WX    TMP DP  RH WIND       PRES   REMARKS
CHAMPAIGN      CLEAR     56  39  53 SW6       30.03R
MATTOON        CLEAR     62  39  42 SW5       30.04S
$$

ILZ079-100>102-270200-
SOUTHWEST ILLINOIS

CITY           SKY/WX    TMP DP  RH WIND       PRES   REMARKS
ALTON          CLEAR     57  43  58 W6        30.09R
BELLEVILLE     CLEAR     59  48  66 W1        30.08R
CAHOKIA*       CLEAR     65  38  36 W5        30.09R
SPARTA*        CLEAR     62  47  58 CALM      30.10S
$$

ILZ064>066-069>071-074>076-080>082-084>086-088>090-092>094-270200-
SOUTH-CENTRAL ILLINOIS

CITY           SKY/WX    TMP DP  RH WIND       PRES   REMARKS
CARBONDALE     CLEAR     56  53  90 CALM      30.10R
MT. VERNON     CLEAR     54  46  76 CALM      30.09S
CENTRALIA*     CLEAR     60  50  70 W3        30.08S
SALEM*         CLEAR     59  47  65 CALM      30.08S
METROPOLIS*    CLEAR     59  56  91 CALM      30.10R
$$

ILZ067-068-072-073-078-083-087-091-270200-
SOUTHEAST ILLINOIS

CITY           SKY/WX    TMP DP  RH WIND       PRES   REMARKS
LAWRENCEVILLE  CLEAR     61  45  55 W6        30.07R
FLORA*         CLEAR     61  49  63 W6        30.07S
HARRISBURG*    CLEAR     58  55  89 CALM      30.09R
ROBINSON*      CLEAR     53  46  78 SW6       30.06S
$$

ABBREVIATIONS USED IN REMARKS
   TC - TEMPERATURE IN CELSIUS
  WCI - WIND CHILL INDEX
   HX - HEAT INDEX
  VSB - VISIBILITY
$$




USA.gov is the U.S. government's official web portal to all federal, state and local government web resources and services.